Regional Weather Roundup
Issued by NWS Memphis, TN

Home | Current Version | Previous Version | Text Only | Print | Product List | Glossary On
Versions: 1 2 3 4 5 6 7 8 9 10 11 12 13 14 15 16 17 18 19 20 21 22 23 24 25 26 27 28 29 30 31 32 33 34 35 36 37 38 39 40 41 42 43 44 45 46 47 48 49 50
000
ASUS44 KMEG 011210
RWRMEG
MEMPHIS CWA HOURLY WEATHER ROUNDUP
NATIONAL WEATHER SERVICE MEMPHIS TN
600 AM CST SUN FEB 01 2015

...WEST TENNESSEE...

CITY           SKY/WX    TMP DP  RH WIND       PRES   REMARKS
MEMPHIS INTL   LGT RAIN  49  44  83 S17G24    29.91F
6HR MIN TEMP:  48; 6HR MAX TEMP:  53; 6HR PCP:  0.03;

NWS MEMPHIS      N/A     48 N/A N/A MISG        N/A
JACKSON        LGT RAIN  48  33  56 S14G22    29.94F
6HR MIN TEMP:  48; 6HR MAX TEMP:  51; 6HR PCP: TRACE;

LEXINGTON      MOCLDY    48  25  40 S9        29.96F
SAVANNAH       MOCLDY    48  30  49 S13       30.00F
DYERSBURG      CLOUDY    46  27  46 S13G18    29.91F
6HR MIN TEMP:  45; 6HR MAX TEMP:  48;

UNION CITY     CLOUDY    45  34  65 S16       29.88F
PARIS          MOCLDY    46  25  42 S14       29.93F


...EASTERN ARKANSAS...

CITY           SKY/WX    TMP DP  RH WIND       PRES   REMARKS
JONESBORO      LGT RAIN  44  42  93 S16       29.82F
6HR MIN TEMP:  38; 6HR MAX TEMP:  44; 6HR PCP:  0.13;

WEST MEMPHIS   LGT RAIN  47  44  90 S13       29.88F
6HR MIN TEMP:  46; 6HR MAX TEMP:  51; 6HR PCP:  0.04;

BATESVILLE     CLOUDY    45  41  87 S3        29.81S
6HR MIN TEMP:  39; 6HR MAX TEMP:  45; 6HR PCP:  0.16;

NEWPORT        LGT RAIN  45  43  93 S16       29.82F
6HR MIN TEMP:  38; 6HR MAX TEMP:  45; 6HR PCP:  0.10;

WALNUT RIDGE   CLOUDY    43  37  81 S15       29.80F
6HR MIN TEMP:  37; 6HR MAX TEMP:  43; 6HR PCP:  0.15;

BLYTHEVILLE    LGT RAIN  46  39  76 S16G25    29.87F
6HR MIN TEMP:  45; 6HR MAX TEMP:  50; 6HR PCP:  0.02;

SEARCY         LGT RAIN  49  47  93 S9        29.83F
6HR MIN TEMP:  40; 6HR MAX TEMP:  49; 6HR PCP:  0.14;

STUTTGART      CLOUDY    48  45  87 S21       29.86F
6HR MIN TEMP:  45; 6HR MAX TEMP:  52; 6HR PCP:  0.06;

PINE BLUFF     CLOUDY    52  49  89 S20       29.87F
6HR MIN TEMP:  46; 6HR MAX TEMP:  53; 6HR PCP:  0.04;

MONTICELLO     CLOUDY    52  49  89 S16G22    29.90S
6HR MIN TEMP:  50; 6HR MAX TEMP:  53; 6HR PCP:  0.09;



...NORTH MISSISSIPPI...

CITY           SKY/WX    TMP DP  RH WIND       PRES   REMARKS
TUPELO         LGT RAIN  47  39  74 S13       30.03F
6HR MIN TEMP:  47; 6HR MAX TEMP:  50; 6HR PCP: TRACE;

OXFORD         CLOUDY    45  41  87 SE8G16    29.97F FOG
TUNICA         RAIN      48  46  93 S14       29.92F
CLARKSDALE     CLOUDY    50  50 100 SE14      29.92F
GRENADA        DRIZZLE   50  46  87 S8        29.98F
GREENWOOD      LGT RAIN  52  49  89 S18G26    29.95F
6HR MIN TEMP:  50; 6HR MAX TEMP:  53; 6HR PCP:  0.12;

COLUMBUS       LGT RAIN  47  39  73 SE10      30.06S
6HR MIN TEMP:  41; 6HR MAX TEMP:  49; 6HR PCP: TRACE;

STARKVILLE     RAIN      43  41  93 S7        30.06F
GOLDEN TRIANGL LGT RAIN  45  37  76 SE12      30.06F


...SOUTHEAST MISSOURI...

CITY           SKY/WX    TMP DP  RH WIND       PRES   REMARKS
WEST PLAINS    LGT RAIN  38  36  92 S7        29.77F FOG     WCI  33
6HR MIN TEMP:  36; 6HR MAX TEMP:  39; 6HR PCP:  0.45;

POPLAR BLUFF   RAIN      41  36  82 S6        29.82F
6HR MIN TEMP:  37; 6HR MAX TEMP:  41; 6HR PCP:  0.23;

CAPE GIRARDEAU LGT RAIN  43  36  76 S15       29.84F
6HR MIN TEMP:  39; 6HR MAX TEMP:  44; 6HR PCP:  0.07;



...NORTHWEST ALABAMA...

CITY           SKY/WX    TMP DP  RH WIND       PRES   REMARKS
MUSCLE SHOALS  CLOUDY    50  26  39 S12G22    30.06F
6HR MIN TEMP:  43; 6HR MAX TEMP:  51;



...MIDDLE TENNESSEE...

CITY           SKY/WX    TMP DP  RH WIND       PRES   REMARKS
NASHVILLE      CLOUDY    48  22  35 S14       30.03F
6HR MIN TEMP:  41; 6HR MAX TEMP:  48;

CLARKSVILLE    CLOUDY    47  23  38 S12       29.97F
6HR MIN TEMP:  43; 6HR MAX TEMP:  47;

COLUMBIA       CLOUDY    46  28  49 S10       30.01S


...WESTERN KENTUCKY...

CITY           SKY/WX    TMP DP  RH WIND       PRES   REMARKS
PADUCAH        LGT RAIN  47  29  49 S14       29.86F
6HR MIN TEMP:  40; 6HR MAX TEMP:  50; 6HR PCP: TRACE;

FORT CAMPBELL  CLOUDY    46  22  38 SE9       29.95F
6HR MIN TEMP:  44; 6HR MAX TEMP:  46; 6HR PCP: TRACE;



...CENTRAL ARKANSAS...

CITY           SKY/WX    TMP DP  RH WIND       PRES   REMARKS
LITTLE ROCK    LGT RAIN  53  49  86 S13G21    29.83F FOG
6HR MIN TEMP:  45; 6HR MAX TEMP:  53; 6HR PCP:  0.09;



SKY/WX REPORTED AS FAIR MEANS FEW OR NO CLOUDS BELOW
12 THOUSAND FEET.



USA.gov is the U.S. government's official web portal to all federal, state and local government web resources and services.